Waarnemingen

Advertentie
Mijn weer
Saarbrücken-Ensheim, Duitsland (10708): temperatuur & dauwpunt: 20.04.2017 06:00:00 - 26.04.2017 06:00:00 (CEST)Saarbrücken-Ensheim, Duitsland (10708): temperatuur 5cm & temperatuur -5cm: 20.04.2017 06:00:00 - 26.04.2017 06:00:00 (CEST)Saarbrücken-Ensheim, Duitsland (10708): temperatuur -20cm & temperatuur -100cm: 20.04.2017 06:00:00 - 26.04.2017 06:00:00 (CEST)Saarbrücken-Ensheim, Duitsland (10708): windsnelheid & windstoten: 20.04.2017 06:00:00 - 26.04.2017 06:00:00 (CEST)Saarbrücken-Ensheim, Duitsland (10708): windrichting: 20.04.2017 06:00:00 - 26.04.2017 06:00:00 (CEST)Saarbrücken-Ensheim, Duitsland (10708): luchtdruk: 20.04.2017 06:00:00 - 26.04.2017 06:00:00 (CEST)Saarbrücken-Ensheim, Duitsland (10708): zicht: 20.04.2017 06:00:00 - 26.04.2017 06:00:00 (CEST)Saarbrücken-Ensheim, Duitsland (10708): Zonneschijnduur: 20.04.2017 06:00:00 - 26.04.2017 06:00:00 (CEST)Saarbrücken-Ensheim, Duitsland (10708): neerslag: 20.04.2017 06:00:00 - 26.04.2017 06:00:00 (CEST)
Datum & Tijd tt [°C] td [°C] tt 5cm [°C] tt -5cm [°C] tt -20cm [°C] tt -100cm [°C] ff [km/u] ff [kn] fx [km/u] fx [kn] dd ppp [hPa] vv [km] sd [min] rr [mm]
26.04.2017 06:00:00 2,7 2,2 2,4 7,2 10,0 10,5 4 2 8 4 W 1011,2 12 0 0,0
26.04.2017 05:00:00 3,1 2,0 2,8 7,4 10,2 10,5 4 2 5 3 W 1011,2 10 0 0,1
26.04.2017 04:00:00 3,4 1,5 3,0 7,5 10,3 10,5 4 2 15 8 ZZW 1011,3 10 0 0,0
26.04.2017 03:00:00 4,0 0,8 3,8 7,8 10,5 10,5 13 7 21 11 ZZO 1011,1 10 0 0,0
26.04.2017 02:00:00 5,1 -0,5 4,6 8,1 10,7 10,5 15 8 22 12 O 1010,8 10 0 0,0
26.04.2017 01:00:00 5,1 -0,4 4,7 8,4 10,9 10,4 5 3 21 11 O 1010,5 10 0 0,0
26.04.2017 00:00:00 5,7 -0,5 5,0 8,8 11,1 10,4 3 2 11 6 NNO 1010,1 50 0 0,0
25.04.2017 23:00:00 5,2 0,0 4,6 9,1 11,2 10,4 1 1 9 5 WZW 1010,3 50 0 0,0
25.04.2017 22:00:00 6,0 -0,5 5,5 9,6 11,4 10,4 9 5 15 8 OZO 1010,1 50 0 0,0
25.04.2017 21:00:00 5,7 0,1 5,5 10,4 11,6 10,4 4 2 16 8 - 1010,2 10 0 0,0
25.04.2017 20:00:00 6,8 0,4 6,7 11,3 11,6 10,4 11 6 14 8 Z 1009,6 10 0 0,0
25.04.2017 19:00:00 7,7 -2,6 7,9 12,2 11,5 10,4 5 3 18 10 NW 1009,6 10 0 0,0
25.04.2017 18:00:00 7,9 -2,6 9,4 12,9 11,4 10,4 12 6 22 12 NW 1009,8 40 0 0,0
25.04.2017 17:00:00 7,8 -1,5 10,2 12,8 11,2 10,4 11 6 21 11 W 1010,1 10 0 0,0
25.04.2017 16:00:00 7,0 -1,1 10,2 12,0 11,1 10,4 13 7 34 18 W 1010,7 10 0 0,0
25.04.2017 15:00:00 6,3 0,2 8,5 11,0 11,0 10,4 16 9 29 16 W 1011,3 30 0 0,0
25.04.2017 14:00:00 6,4 -0,1 8,5 10,3 11,0 10,4 17 9 24 13 W 1011,2 55 0 0,0
25.04.2017 13:00:00 6,1 -0,2 7,3 10,0 11,0 10,4 14 8 28 15 NW 1010,8 50 0 0,0
25.04.2017 12:00:00 5,6 1,6 6,4 9,6 11,1 10,4 16 9 29 16 WNW 1011,0 10 0 0,0
25.04.2017 11:00:00 5,5 4,0 5,4 9,8 11,1 10,4 22 12 36 20 NW 1010,2 10 0 0,0
25.04.2017 10:00:00 7,8 5,2 8,3 10,4 11,0 10,4 16 9 27 14 W 1009,0 10 0 -
25.04.2017 09:00:00 8,1 5,0 9,2 9,7 11,1 10,3 17 9 31 17 W 1008,6 40 22 0,0
25.04.2017 08:00:00 7,2 3,8 6,7 8,7 11,2 10,3 21 11 26 14 W 1008,4 10 7 0,0
25.04.2017 07:00:00 6,5 2,3 5,9 8,3 11,4 10,3 11 6 16 9 W 1008,4 10 0 0,0
25.04.2017 06:00:00 5,8 1,5 4,9 8,0 11,7 10,3 9 5 11 6 WZW 1008,2 50 0 0,0
25.04.2017 05:00:00 4,9 0,4 2,2 7,8 12,0 10,3 5 3 9 5 WZW 1008,5 10 0 0,0
25.04.2017 04:00:00 5,0 0,6 0,7 8,4 12,4 10,3 4 2 8 4 - 1008,7 10 0 0,0
25.04.2017 03:00:00 4,1 0,6 1,0 9,1 12,8 10,3 4 2 5 3 ZZO 1009,2 55 0 0,0
25.04.2017 02:00:00 5,2 0,2 2,1 9,9 13,3 10,3 0 0 11 6 N 1009,4 60 0 0,0
25.04.2017 01:00:00 7,9 0,5 4,5 10,8 13,7 10,3 9 5 15 8 W 1009,4 10 0 0,0
25.04.2017 00:00:00 8,6 0,6 5,3 11,7 14,2 10,3 9 5 15 8 W 1009,8 10 0 0,0
24.04.2017 23:00:00 9,3 0,2 5,7 12,8 14,7 10,3 10 6 15 8 WNW 1010,0 60 0 0,0
24.04.2017 22:00:00 9,4 -0,6 5,6 14,4 15,1 10,3 5 3 9 5 WNW 1010,2 10 0 0,0
24.04.2017 21:00:00 11,9 -1,2 8,3 16,4 15,4 10,3 9 5 16 9 WZW 1010,1 10 16 0,0
24.04.2017 20:00:00 14,6 -1,8 13,4 18,4 15,6 10,3 15 8 22 12 ZW 1010,4 10 32 0,0
24.04.2017 19:00:00 15,3 -1,4 16,1 20,7 15,6 10,3 16 9 31 17 WZW 1010,8 10 51 0,0
24.04.2017 18:00:00 16,3 -0,2 18,7 22,9 15,3 10,3 16 9 29 16 ZW 1011,2 10 60 0,0
24.04.2017 17:00:00 15,9 -1,6 18,5 24,3 14,7 10,3 13 7 24 13 ZW 1012,0 60 60 0,0
24.04.2017 16:00:00 15,9 -1,3 20,7 25,1 13,9 10,3 11 6 22 12 WZW 1013,0 10 60 0,0
24.04.2017 15:00:00 14,9 -3,2 19,9 24,8 13,0 10,3 11 6 22 12 W 1014,4 10 60 0,0
24.04.2017 14:00:00 13,9 -2,4 20,2 23,4 11,9 10,3 8 4 21 11 - 1015,5 10 60 0,0
24.04.2017 13:00:00 13,0 -0,8 19,0 21,1 10,9 10,3 5 3 15 8 - 1016,6 10 60 0,0
24.04.2017 12:00:00 11,6 -2,6 17,2 18,2 10,1 10,3 5 3 15 8 - 1017,6 10 60 0,0
24.04.2017 11:00:00 10,8 -1,2 16,2 14,5 9,4 10,3 5 3 13 7 - 1018,3 10 60 0,0
24.04.2017 10:00:00 8,5 -1,3 11,6 10,5 9,1 10,3 5 3 13 7 - 1018,9 10 60 0,0
24.04.2017 09:00:00 6,1 -1,3 8,0 7,1 9,1 10,3 9 5 15 8 O 1019,8 10 60 0,0
24.04.2017 08:00:00 4,0 -1,4 3,8 4,8 9,4 10,3 9 5 14 8 ONO 1020,4 10 60 0,0
24.04.2017 07:00:00 1,2 -1,4 -1,5 4,4 9,7 10,3 11 6 13 7 ONO 1021,0 10 14 0,0
24.04.2017 06:00:00 0,6 -2,2 -2,7 4,9 10,0 10,3 11 6 13 7 ONO 1021,5 60 0 0,0
24.04.2017 05:00:00 0,7 -2,5 -1,8 5,4 10,4 10,3 9 5 18 10 ONO 1022,0 10 0 0,0
24.04.2017 04:00:00 1,0 -2,6 -1,6 5,9 10,8 10,3 11 6 15 8 ONO 1022,5 10 0 0,0
24.04.2017 03:00:00 1,3 -2,6 -1,2 6,5 11,2 10,3 11 6 18 10 ONO 1023,3 10 0 0,0
24.04.2017 02:00:00 2,2 -3,0 0,2 7,2 11,6 10,3 9 5 16 9 ONO 1023,9 10 0 0,0
24.04.2017 01:00:00 2,8 -2,6 0,4 8,1 12,1 10,3 9 5 18 10 O 1024,3 60 0 0,0
24.04.2017 00:00:00 3,1 -2,3 0,7 9,0 12,6 10,3 11 6 16 9 ONO 1024,7 10 0 0,0
23.04.2017 23:00:00 4,1 -1,5 1,6 10,3 13,1 10,3 10 5 19 10 O 1024,8 60 0 0,0
23.04.2017 22:00:00 6,4 -2,2 4,4 11,7 13,6 10,3 13 7 22 12 NO 1024,5 60 0 0,0
23.04.2017 21:00:00 6,4 -2,1 4,4 13,7 13,9 10,3 10 5 15 8 ONO 1024,2 60 33 0,0
23.04.2017 20:00:00 9,9 -2,3 8,7 16,2 14,1 10,3 6 3 15 8 O 1023,6 60 60 0,0
23.04.2017 19:00:00 10,8 -3,1 14,0 18,7 14,0 10,3 10 5 16 9 NO 1023,5 65 51 0,0
23.04.2017 18:00:00 11,0 -3,3 16,2 21,1 13,6 10,3 9 5 21 11 ONO 1023,6 10 60 0,0
23.04.2017 17:00:00 10,9 -4,5 17,8 22,5 12,9 10,3 14 8 29 16 NNO 1023,9 70 60 0,0
23.04.2017 16:00:00 10,5 -4,0 17,2 22,7 12,0 10,3 9 5 26 14 - 1024,4 10 60 0,0
23.04.2017 15:00:00 10,7 -1,9 17,9 21,4 11,2 10,2 11 6 31 17 N 1024,7 10 58 0,0
23.04.2017 14:00:00 9,9 -3,3 16,4 18,4 10,4 10,2 14 8 24 13 N 1025,3 70 44 0,0
23.04.2017 13:00:00 9,3 -2,2 16,2 14,6 9,8 10,2 7 4 21 11 N 1025,9 65 25 0,0
23.04.2017 12:00:00 7,1 -2,3 9,4 12,9 9,4 10,2 8 4 31 17 - 1026,6 10 16 0,0
23.04.2017 11:00:00 6,4 -2,8 9,4 10,8 9,1 10,2 7 4 23 12 NO 1026,7 60 16 0,0
23.04.2017 10:00:00 5,7 -1,8 6,8 10,1 8,8 10,2 11 6 18 10 NO 1026,7 10 54 0,0
23.04.2017 09:00:00 5,8 -0,9 7,0 7,2 8,7 10,2 11 6 15 8 N 1026,7 60 60 0,0
23.04.2017 08:00:00 4,8 0,7 4,0 5,3 8,8 10,2 4 2 15 8 NO 1026,6 50 60 0,0
23.04.2017 07:00:00 0,4 -0,5 -1,1 4,2 9,1 10,2 8 4 16 9 N 1026,7 10 3 0,0
23.04.2017 06:00:00 -0,6 -1,6 -4,1 4,2 9,4 10,2 2 1 8 4 - 1026,3 10 0 0,0
23.04.2017 05:00:00 0,6 -1,3 -3,0 4,8 9,8 10,2 5 3 8 4 NNW 1026,0 10 0 0,0
23.04.2017 04:00:00 1,4 -1,2 -2,5 5,5 10,1 10,2 5 3 13 7 N 1025,8 10 0 0,0
23.04.2017 03:00:00 2,7 -0,4 -1,3 6,3 10,4 10,2 11 6 15 8 NNW 1025,9 10 0 0,0
23.04.2017 02:00:00 3,5 0,1 0,3 7,1 10,7 10,2 6 3 13 7 NNW 1026,1 50 0 0,0
23.04.2017 01:00:00 5,0 0,1 2,6 7,7 11,0 10,2 8 4 21 11 NNW 1026,0 10 0 0,0
23.04.2017 00:00:00 6,0 0,2 4,3 8,1 11,3 10,2 13 7 17 9 N 1025,7 10 0 0,0
22.04.2017 23:00:00 4,6 -0,7 1,6 8,8 11,7 10,2 8 4 11 6 NNW 1025,6 10 0 0,0
22.04.2017 22:00:00 7,4 -0,6 4,2 10,1 11,9 10,2 5 3 21 11 N 1024,8 50 0 0,0
22.04.2017 21:00:00 8,6 -0,2 7,1 11,2 12,1 10,2 8 4 22 12 NNO 1024,4 10 2 0,0
22.04.2017 20:00:00 9,5 0,9 9,2 12,7 12,1 10,1 12 7 23 13 N 1023,9 60 2 0,0
22.04.2017 19:00:00 10,3 2,2 11,4 13,8 12,1 10,1 15 8 28 15 NNW 1023,6 10 13 0,0
22.04.2017 18:00:00 9,6 4,0 12,2 13,9 12,0 10,1 9 5 16 9 WNW 1023,9 10 20 0,0
22.04.2017 17:00:00 7,8 3,7 9,3 12,6 12,1 10,1 10 6 26 14 WNW 1024,6 60 0 0,0
22.04.2017 16:00:00 8,6 3,7 9,5 13,4 12,1 10,1 14 7 29 16 N 1024,9 50 0 0,0
22.04.2017 15:00:00 10,1 6,0 11,7 14,0 12,0 10,1 20 11 28 15 N 1024,5 35 0 0,0
22.04.2017 14:00:00 11,1 5,2 11,1 14,5 11,8 10,1 17 9 29 16 NW 1024,2 35 0 0,0
22.04.2017 13:00:00 11,6 5,0 12,6 16,3 11,4 10,1 22 12 34 18 WNW 1024,4 10 17 0,0
22.04.2017 12:00:00 12,1 5,4 15,5 15,0 11,0 10,1 21 11 29 16 W 1024,7 30 10 0,0
22.04.2017 11:00:00 10,8 5,4 13,5 12,2 10,8 10,1 16 9 31 17 WNW 1025,2 10 0 0,0
22.04.2017 10:00:00 9,6 5,6 10,8 10,3 10,8 10,1 11 6 21 11 W 1025,5 10 0 0,0
22.04.2017 09:00:00 8,9 5,4 9,1 9,7 10,9 10,1 13 7 16 9 W 1025,6 10 0 0,0
22.04.2017 08:00:00 8,5 5,0 8,2 9,4 11,0 10,1 11 6 13 7 W 1025,8 10 0 0,0
22.04.2017 07:00:00 8,2 4,5 7,6 9,4 11,1 10,1 8 4 11 6 W 1025,8 10 0 0,0
22.04.2017 06:00:00 8,1 4,5 7,4 9,5 11,2 10,1 6 3 10 5 WNW 1025,8 30 0 0,0
22.04.2017 05:00:00 8,1 4,7 7,3 9,5 11,4 10,1 5 3 9 5 W 1026,2 10 0 0,0
22.04.2017 04:00:00 8,0 4,7 7,4 9,4 11,7 10,1 8 4 12 7 W 1026,5 10 0 0,0
22.04.2017 03:00:00 7,1 3,9 6,6 9,1 12,0 10,1 9 5 13 7 WNW 1027,1 40 0 0,0
22.04.2017 02:00:00 5,5 2,5 1,7 9,5 12,5 10,1 8 4 9 5 WNW 1027,6 10 0 0,0
22.04.2017 01:00:00 7,3 2,5 3,0 10,5 12,9 10,1 9 5 12 7 WNW 1027,8 10 0 0,0
22.04.2017 00:00:00 7,9 1,9 4,0 11,7 13,2 10,1 6 4 9 5 WNW 1027,9 40 0 0,0
21.04.2017 23:00:00 10,1 1,8 8,0 12,7 13,6 10,1 6 3 8 4 W 1027,8 40 0 0,0
21.04.2017 22:00:00 10,2 1,2 7,1 13,8 14,1 10,1 4 2 9 5 - 1027,9 10 0 0,0
21.04.2017 21:00:00 10,9 0,9 7,2 15,3 14,4 10,1 6 3 15 8 NW 1027,7 40 0 0,0
21.04.2017 20:00:00 13,1 0,6 12,0 17,8 14,5 10,1 8 4 24 13 NNW 1027,5 40 42 0,0
21.04.2017 19:00:00 14,8 0,8 17,0 20,0 14,5 10,1 11 6 24 13 WNW 1027,4 10 35 0,0
21.04.2017 18:00:00 14,9 -0,6 18,4 22,2 14,1 10,1 13 7 26 14 W 1027,8 30 60 0,0
21.04.2017 17:00:00 15,0 -2,3 20,0 23,7 13,5 10,2 15 8 29 16 NW 1028,0 35 60 0,0
21.04.2017 16:00:00 15,2 -1,7 20,4 24,1 12,6 10,2 9 5 26 14 NNW 1028,8 35 60 0,0
21.04.2017 15:00:00 14,4 -2,4 20,7 23,6 11,7 10,2 11 6 24 13 - 1029,7 10 60 0,0
21.04.2017 14:00:00 13,6 -4,4 21,0 22,0 10,6 10,2 9 5 22 12 NW 1030,7 10 60 0,0
21.04.2017 13:00:00 11,9 -4,7 18,8 19,6 9,7 10,2 5 3 18 10 - 1031,6 10 60 0,0
21.04.2017 12:00:00 11,0 -2,9 16,9 16,5 8,8 10,2 13 7 22 12 W 1032,2 25 60 0,0
21.04.2017 11:00:00 9,0 -3,5 14,7 12,9 8,2 10,2 10 5 16 9 W 1032,8 25 60 0,0
21.04.2017 10:00:00 7,3 -3,9 11,4 9,4 7,9 10,2 9 5 13 7 W 1033,0 35 60 0,0
21.04.2017 09:00:00 5,2 -3,0 6,0 6,2 7,9 10,2 4 2 5 3 W 1033,1 25 60 0,0
21.04.2017 08:00:00 2,8 -2,0 2,2 4,2 8,1 10,2 4 2 4 2 O 1033,3 35 60 0,0
21.04.2017 07:00:00 0,7 -3,6 -2,4 4,3 8,3 10,2 2 1 4 2 OZO 1033,3 35 1 0,0
21.04.2017 06:00:00 1,2 -3,6 0,1 4,4 8,5 10,2 2 1 8 4 - 1033,3 10 0 0,0
21.04.2017 05:00:00 1,0 -4,3 -0,9 4,2 8,8 10,2 4 2 5 3 OZO 1033,5 10 0 0,0
21.04.2017 04:00:00 0,2 -2,9 -3,5 4,5 9,2 10,2 2 1 4 2 Z 1034,0 10 0 0,0
21.04.2017 03:00:00 0,6 -5,2 -3,0 5,1 9,6 10,2 4 2 4 2 - 1034,3 10 0 0,0
21.04.2017 02:00:00 2,1 -5,0 -2,0 5,8 10,0 10,2 4 2 8 4 - 1034,2 10 0 0,0
21.04.2017 01:00:00 2,6 -5,1 -2,0 6,5 10,5 10,2 4 2 8 4 O 1034,4 10 0 0,0
21.04.2017 00:00:00 3,1 -3,7 -1,7 7,4 11,0 10,3 5 3 9 5 OZO 1034,6 50 0 0,0
20.04.2017 23:00:00 2,0 -3,6 -1,1 8,7 11,5 10,3 8 4 11 6 OZO 1034,8 10 0 0,0
20.04.2017 22:00:00 4,2 -6,0 0,0 10,2 11,9 10,3 2 1 8 4 - 1034,5 10 0 0,0
20.04.2017 21:00:00 5,3 -3,5 2,5 12,3 12,2 10,3 7 4 8 4 O 1033,9 50 28 0,0
20.04.2017 20:00:00 9,3 -7,4 7,6 14,8 12,4 10,3 8 4 13 7 ZO 1033,3 10 60 0,0
20.04.2017 19:00:00 10,5 -7,3 12,8 17,1 12,2 10,3 4 2 16 9 - 1033,1 10 60 0,0
20.04.2017 18:00:00 10,4 -7,7 15,0 19,1 11,8 10,3 6 3 18 10 O 1033,2 50 60 0,0
20.04.2017 17:00:00 10,1 -6,9 16,9 20,5 11,1 10,3 9 5 23 13 O 1033,7 10 60 0,0
20.04.2017 16:00:00 9,9 -7,0 16,0 20,7 10,3 10,3 8 4 22 12 - 1034,2 10 60 0,0
20.04.2017 15:00:00 8,6 -7,1 14,5 20,0 9,3 10,4 12 6 22 12 N 1035,1 60 60 0,0
20.04.2017 14:00:00 7,8 -4,9 14,4 18,0 8,3 10,4 8 5 24 13 NNW 1035,6 60 60 0,0
20.04.2017 13:00:00 7,3 -4,8 15,1 15,4 7,4 10,4 11 6 25 13 - 1036,2 10 60 0,0
20.04.2017 12:00:00 5,3 -6,4 10,1 11,8 6,7 10,4 18 10 29 16 NO 1037,0 10 52 0,0
20.04.2017 11:00:00 4,6 -5,2 7,0 9,0 6,2 10,4 16 9 26 14 NO 1037,0 55 54 0,0
20.04.2017 10:00:00 3,7 -4,0 6,7 5,6 5,9 10,4 11 6 22 12 NO 1037,1 10 60 0,0
20.04.2017 09:00:00 1,8 -3,5 2,7 1,9 6,0 10,4 13 7 18 10 NO 1037,0 10 60 0,0
20.04.2017 08:00:00 0,0 -4,0 -0,6 1,1 6,2 10,4 11 6 21 11 NO 1036,9 40 60 0,0
20.04.2017 07:00:00 -2,7 -5,0 -4,5 1,1 6,4 10,4 12 6 18 10 NO 1036,9 40 7 0,0
20.04.2017 06:00:00 -2,1 -4,9 -4,3 1,4 6,6 10,4 12 6 18 10 NO 1036,6 40 0 0,0

tt = temperatuur
td = dauwpunt
tt 5cm = temperatuur 5cm
tt -5cm = temperatuur -5cm
tt -20cm = temperatuur -20cm
tt -100cm = temperatuur -100cm
ff = windsnelheid
fx = windstoten
dd = windrichting
ppp = luchtdruk
vv = zicht
sd = Zonneschijnduur
rr = neerslag

Weerstations in de omgeving